EHI
0 0 0 0 0 0 0 0 0 0 0 0 0 0 0 0 0 0 0 0 0 0 0 0 0 0 0 0 0 0 0 0 0 0 0 0 0 0 0 0 0 0 0 0
0 0 0 0 0 0 0 0 0 0 0 0 0 0 0 0 0 0 0 0 0 0 0 0 0 0 0 0 0 0 0 0 0 0 0 0 0 0 0 0 0 0 0 0
0 0 0 0 0 0 0 0 0 0 0 0 0 0 0 0 0 0 0 0 0 0 0 0 0 0 0 0 0 0 0 0 0 0 0 0 0 0 0 0 0 0 0 0
0 0 0 0 0 0 0 0 0 0 0 0 0 0 0 0 0 0 0 0 0 0 0 0 0 0 0 0 0 0 0 0 0 0 0 0 0 0 0 0 0 0 0 0
0 0 0 0 0 0 0 0 0 0 0 0 0 0 0 0 0 0 0 0 0 0 0 0 0 0 0 0 0 0 0 0 0 0 0 0 0 0 0 0 0 0 0 0
0 0 0 0 0 0 0 0 0 0 0 0 0 0 0 0 0 0 0 0 0 0 0 0 0 0 0 0 0 0 0 0 0 0 0 0 0 0 0 0 0 0 0 0
0 0 0 0 0 0 0 0 0 0 0 0 0 0 0 0 0 0 0 0 0 0 0 0 0 0 0 0 0 0 0 0 0 0 0 0 0 0 0 0 0 0 0 0
0 0 0 0 0 0 0 0 0 0 0 0 0 0 0 0 0 0 0 0 0 0 0 0 0 0 0 0 0 0 0 0 0 0 0 0 0 0 0 0 0 0 0 0
0 0 0 0 0 0 0 0 0 0 0 0 0 0 0 0 0 0 0 0 0 0 0 0 0 0 0 0 0 0 0 0 0 0 0 0 0 0 0 0 0 0 0 0
0 0 0 0 0 0 0 0 0 0 0 0 0 0 0 0 0 0 0 0 0 0 0 0 0 0 0 0 0 0 0 0 0 0 0 0 0 0 0 0 0 0 0 0
0 0 0 0 0 0 0 0 0 0 0 0 0 0 0 0 0 0 0 0 0 0 0 0 0 0 0 0 0 0 0 0 0 0 0 0 0 0 0 0 0 0 0 0
0 0 0 0 0 0 0 0 0 0 0 0 0 0 0 0 0 0 0 0 0 0 0 0 0 0 0 0 0 0 0 0 0 0 0 0 0 0 0 0 0 0 0 0
0 0 0 0 0 0 0 0 0 0 0 0 0 0 0 0 0 0 0 0 0 0 0 0 0 0 0 0 0 0 0 0 0 0 0 0 0 0 0 0 0 0 0 0
0 0 0 0 0 0 0 0 0 0 0 0 0 0 0 0 0 0 0 0 0 0 0 0 0 0 0 0 0 0 0 0 0 0 0 0 0 0 0 0 0 0 0 0
0 0 0 0 0 0 0 0 0 0 0 0 0 0 0 0 0 0 0 0 0 0 0 0 0 0 0 0 0 0 0 0 0 0 0 0 0 0 0 0 0 0 0 0
0 0 0 0 0 0 0 0 0 0 0 0 0 0 0 0 0 0 0 0 0 0 0 0 0 0 0 0 0 0 0 0 0 0 0 0 0 0 0 0 0 0 0 0
0 0 0 0 0 0 0 0 0 0 0 0 0 0 0 0 0 0 0 0 0 0 0 0 0 0 0 0 0 0 0 0 0 0 0 0 0 0 0 0 0 0 0 0
0 0 0 0 0 0 0 0 0 0 0 0 0 0 0 0 0 0 0 0 0 0 0 0 0 0 0 0 0 0 0 0 0 0 0 0 0 0 0 0 0 0 0 0
0 0 0 0 0 0 0 0 0 0 0 0 0 0 0 0 0 0 0 0 0 0 0 0 0 0 0 0 0 0 0 0 0 0 0 0 0 0 0 0 0 0 0 0
0 0 0 0 0 0 0 0 0 0 0 0 0 0 0 0 0 0 0 0 0 0 0 0 0 0 0 0 0 0 0 0 0 0 0 0 0 0 0 0 0 0 0 0
0 0 0 0 0 0 0 0 0 0 0 0 0 0 0 0 0 0 0 0 0 0 0 0 0 0 0 0 0 0 0 0 0 0 0 0 0 0 0 0 0 0 0 0
0 0 0 0 0 0 0 0 0 0 0 0 0 0 0 0 0 0 0 0 0 0 0 0 0 0 0 0 0 0 0 0 0 0 0 0 0 0 0 0 0 0 0 0
0 0 0 0 0 0 0 0 0 0 0 0 0 0 0 0 0 0 0 0 0 0 0 0 0 0 0 0 0 0 0 0 0 0 0 0 0 0 0 0 0 0 0 0
0 0 0 0 0 0 0 0 0 0 0 0 0 0 0 0 0 0 0 0 0 0 0 0 0 0 0 0 0 0 0 0 0 0 0 0 0 0 0 0 0 0 0 0
0 0 0 0 0 0 0 0 0 0 0 0 0 0 0 0 0 0 0 0 0 0 0 0 0 0 0 0 0 0 0 0 0 0 0 0 0 0 0 0 0 0 0 0
0 0 0 0 0 0 0 0 0 0 0 0 0 0 0 0 0 0 0 0 0 0 0 0 0 0 0 0 0 0 0 0 0 0 0 0 0 0 0 0 0 0 0 0
0 0 0 0 0 0 0 0 0 0 0 0 0 0 0 0 0 0 0 0 0 0 0 0 0 0 0 0 0 0 0 0 0 0 0 0 0 0 0 0 0 0 0 0
Wind_Speed
5 3 1 1 3 4 4 3 2 1 2 1 1 1 3 4 5 6 7 8 9 9 8 8 8 9 9 9 9 9 9 10 10 10 10 10 10 10 10 10 10 9 9 9
4 3 3 5 6 6 5 4 4 3 4 3 2 2 2 2 4 6 7 8 8 8 8 8 8 8 9 9 9 9 9 10 9 10 10 10 10 10 10 10 10 10 10 10
3 3 6 7 8 11 7 7 6 6 3 5 4 3 2 2 3 5 6 6 7 7 7 7 7 7 8 8 8 8 9 9 9 10 10 10 10 10 10 9 10 10 10 9
2 4 4 4 3 6 8 8 9 5 4 6 4 2 2 2 3 4 4 5 6 6 5 5 5 6 6 6 7 8 8 9 9 9 9 9 10 10 9 9 9 9 9 9
3 4 4 4 6 7 8 7 12 11 9 8 5 4 4 3 2 3 4 4 5 5 4 4 5 5 5 6 7 7 8 8 8 8 9 9 9 9 8 8 8 8 8 9
4 5 3 3 7 7 5 6 10 13 12 10 9 6 4 4 1 1 2 3 3 3 3 3 4 4 4 6 6 7 7 7 7 8 8 9 9 8 7 6 7 7 7 8
7 6 5 5 9 10 7 1 10 14 13 12 11 3 6 4 2 1 1 2 2 2 2 3 3 3 4 5 6 6 5 6 6 7 7 8 7 7 7 7 7 7 7 7
5 6 3 11 12 10 3 5 9 13 13 13 9 5 5 4 3 2 1 0 1 1 1 1 2 2 3 5 4 4 4 4 5 6 6 6 7 7 7 7 7 7 7 7
6 4 4 13 9 6 3 6 9 12 12 12 11 9 8 6 4 3 1 0 0 1 0 1 1 1 2 4 3 3 3 4 4 5 5 5 6 6 6 6 6 6 6 6
8 9 8 12 11 7 7 7 9 12 13 13 12 11 9 7 6 5 3 1 1 1 1 1 2 1 1 3 3 3 3 3 2 3 4 5 4 5 5 6 6 6 6 6
9 7 5 10 16 14 11 8 10 12 13 14 12 11 10 8 7 5 4 3 2 2 1 1 2 2 2 3 4 3 3 2 1 2 2 3 3 4 4 6 6 6 6 6
7 6 7 5 11 17 15 14 14 14 14 14 12 11 11 8 7 6 5 4 4 3 3 2 2 2 3 3 4 4 2 2 1 0 0 1 1 2 2 1 3 4 6 7
4 2 5 1 5 15 18 16 16 16 16 14 13 11 11 9 8 7 6 6 5 4 4 3 3 3 3 3 5 4 3 2 2 2 1 1 1 2 1 4 4 2 4 6
8 5 6 7 7 12 16 17 16 16 15 15 13 12 11 10 9 9 8 7 6 5 5 4 4 3 3 3 5 5 4 3 3 2 2 2 1 2 2 2 1 2 4 4
13 13 8 4 7 11 14 15 16 16 16 15 13 13 13 12 11 10 8 7 7 6 6 6 5 4 4 4 5 5 4 3 3 3 3 2 2 2 1 1 1 1 1 4
10 13 12 10 10 13 16 18 18 18 17 16 15 15 14 12 11 9 9 8 8 8 7 7 6 5 5 5 5 4 4 3 4 4 4 3 3 2 2 1 1 0 0 1
10 12 15 16 15 16 18 19 19 18 18 18 17 16 14 13 11 10 10 10 9 7 7 7 6 6 6 6 5 4 4 5 7 6 5 4 3 3 3 2 2 1 0 1
16 14 14 15 16 17 18 19 19 19 18 18 17 16 15 15 14 13 12 10 9 9 8 8 7 7 7 6 5 4 4 4 5 5 5 5 4 4 4 4 4 3 2 4
16 16 15 14 14 15 16 18 18 18 18 17 17 17 17 16 15 13 12 11 11 11 10 9 8 9 8 7 5 5 5 5 5 5 5 5 6 6 5 5 5 4 4 4
14 14 15 14 14 14 14 15 16 17 17 17 18 17 17 16 15 13 12 12 10 8 7 7 10 10 9 8 7 6 6 6 6 6 5 6 6 6 6 6 6 5 5 5
14 13 13 14 13 13 13 13 14 16 17 17 18 18 17 16 15 13 12 11 11 10 9 8 8 8 8 6 8 7 6 6 6 6 6 6 6 6 6 6 6 6 6 6
14 12 12 12 13 12 12 12 13 14 16 16 18 17 17 16 15 14 14 10 8 9 9 8 9 9 8 8 7 7 7 7 6 6 5 6 6 6 7 7 6 6 6 6
14 13 11 10 11 12 11 11 12 13 15 16 17 17 17 14 12 11 11 10 9 11 9 8 9 11 12 9 8 8 8 8 7 6 6 6 6 6 6 7 6 6 6 6
16 14 12 10 8 8 9 10 10 10 11 12 13 15 14 12 10 10 9 8 10 12 9 9 12 13 13 9 9 9 9 8 7 7 7 6 6 6 6 6 6 6 7 8
17 16 15 12 8 6 6 5 7 8 9 8 10 11 10 9 9 8 8 9 9 10 8 9 13 14 11 9 9 9 9 8 7 7 7 7 7 7 7 7 7 7 7 7
15 13 12 12 10 9 7 4 2 3 4 5 6 6 6 6 7 6 5 7 10 10 8 7 8 11 10 10 10 10 9 8 8 8 9 8 8 8 7 7 9 7 7 7
12 12 11 11 11 11 10 7 5 3 2 1 3 3 4 5 5 6 7 6 7 7 7 7 7 8 8 9 9 9 9 8 8 8 8 8 8 8 8 9 8 7 7 7
Wind_Direction
90 104 164 208 202 211 245 290 290 152 214 189 156 341 345 346 354 1 9 13 14 15 18 19 21 22 24 25 25 27 31 33 31 33 36 37 38 39 40 38 37 36 39 41
159 180 238 251 226 218 229 229 229 220 224 185 194 241 292 345 357 2 7 10 10 14 18 19 23 24 25 25 26 29 34 35 32 32 34 35 36 37 38 37 36 37 37 38
183 185 254 248 217 207 211 210 213 218 183 167 196 218 280 336 342 353 1 4 6 11 17 16 21 22 26 25 27 33 37 35 32 33 33 33 34 36 35 38 38 37 36 34
251 230 253 82 101 201 217 221 215 220 183 189 199 210 260 291 317 340 357 357 1 4 15 18 24 26 29 34 34 39 38 36 32 30 33 34 35 34 31 34 38 36 33 33
264 273 271 171 182 190 212 233 210 209 199 191 188 218 204 187 273 327 341 344 349 351 360 15 24 18 26 42 44 43 38 34 32 32 32 31 31 30 29 29 34 36 35 31
247 273 265 117 148 171 208 242 191 196 193 184 191 212 146 140 189 295 332 342 347 344 354 28 34 21 26 43 47 46 40 37 37 35 31 30 28 25 28 31 31 35 40 35
243 261 266 122 145 169 214 68 159 184 186 185 197 183 113 145 173 219 324 349 336 343 24 31 26 20 38 48 53 52 48 46 42 40 38 32 28 26 28 33 33 35 41 40
218 235 245 143 163 201 226 105 165 178 182 184 186 161 160 177 181 194 198 25 341 348 61 54 17 13 58 61 67 72 70 62 52 43 36 36 35 31 32 30 34 34 36 38
228 256 59 177 196 207 201 180 175 176 178 180 182 183 185 188 187 188 201 175 325 318 133 114 86 11 57 95 115 115 98 78 64 58 47 37 34 33 34 32 30 31 30 29
252 250 225 210 216 209 207 199 181 178 176 181 184 185 186 189 189 191 196 193 222 221 192 120 100 102 82 129 163 162 127 102 83 62 55 51 36 31 31 27 25 26 25 22
247 253 227 221 217 209 200 198 184 181 181 184 186 186 187 190 192 194 193 193 212 219 183 147 148 147 148 170 189 189 161 146 123 71 40 35 50 35 24 43 25 7 12 13
234 220 211 207 201 200 195 194 189 184 184 188 190 189 190 192 189 193 196 195 199 195 201 191 174 162 161 185 208 216 196 177 175 165 21 352 13 105 131 38 51 27 17 4
263 191 216 186 195 193 195 194 190 189 188 188 192 193 193 191 189 194 199 204 203 196 199 196 189 183 168 190 212 224 224 203 205 232 252 292 335 350 68 156 170 111 53 35
223 206 209 211 202 193 195 194 192 193 193 192 191 192 194 194 192 197 203 201 199 199 202 202 204 192 181 198 211 221 224 202 223 225 252 275 307 330 350 4 65 125 122 90
216 217 227 210 192 189 192 191 193 196 195 194 192 193 195 198 198 201 200 197 200 206 205 206 211 201 190 208 219 218 216 212 213 224 235 251 263 276 292 326 8 49 117 138
211 213 221 218 205 192 192 195 198 199 196 195 195 197 199 202 202 200 196 198 206 210 207 209 213 202 197 213 220 222 214 207 234 232 228 230 237 249 256 268 290 318 344 63
206 207 210 216 213 204 201 202 204 202 199 199 199 198 197 199 201 202 201 204 215 220 214 216 215 199 203 218 225 226 222 196 203 233 236 236 241 247 250 251 261 270 262 113
233 233 220 215 210 206 206 206 208 207 204 201 199 198 199 201 204 205 204 203 209 218 221 220 213 203 207 218 226 233 229 226 219 228 230 232 240 243 246 248 249 249 237 175
250 244 238 229 221 212 207 206 207 208 205 201 199 201 204 207 209 208 203 202 209 217 217 211 200 213 214 211 221 227 235 235 233 232 234 226 236 242 240 242 243 242 238 225
270 254 243 233 221 216 212 208 205 207 205 202 202 204 206 208 209 209 205 208 214 217 210 193 194 210 216 206 204 230 232 236 240 239 236 239 238 240 238 238 241 241 237 233
293 270 248 235 223 215 213 207 203 205 203 202 204 206 207 208 207 207 207 215 218 212 205 189 204 209 212 200 200 226 230 234 238 242 241 240 242 242 242 239 237 239 240 237
314 294 267 245 230 219 212 208 204 204 202 202 206 208 208 209 207 208 213 219 219 186 192 200 208 208 201 195 212 220 227 233 238 241 244 246 247 247 246 245 243 242 240 239
330 318 298 267 245 232 217 209 205 203 203 202 203 206 208 208 205 205 213 212 212 189 196 205 202 190 186 203 218 220 224 229 234 239 241 246 248 250 252 251 248 246 244 241
349 343 332 312 280 249 229 217 210 207 206 206 208 208 208 208 209 213 221 197 191 187 202 204 195 191 195 215 220 223 227 229 232 239 243 246 248 250 252 253 253 249 247 246
356 356 356 350 338 316 291 258 223 212 208 207 207 207 211 212 211 204 205 204 187 188 204 202 200 200 205 217 221 225 228 229 231 235 240 244 246 249 252 251 252 253 251 248
357 357 357 360 359 348 339 323 277 229 210 205 201 199 201 202 208 201 194 196 195 197 205 201 194 198 210 216 220 225 230 228 223 228 237 242 246 245 248 251 253 252 254 252
354 356 355 357 359 357 353 353 353 352 332 237 197 185 192 192 192 195 195 193 191 195 201 202 200 202 208 211 217 223 227 230 231 231 234 237 241 244 247 249 251 253 253 254